Probability
0 0 0 0 0 0 0 0 0 0 0 0 0 0 0 0 0 0 0 0 0 0 0 0 0 0 0 0 0 0 0 0 0 0 0 0 0 0 0 0 0 0 0
0 0 0 0 0 0 0 0 0 0 0 0 0 0 0 0 0 0 0 0 0 0 0 0 0 0 0 0 0 0 0 0 0 0 0 0 0 0 0 0 0 0 0
0 0 0 0 0 0 0 0 0 0 0 0 0 0 0 0 0 0 0 0 0 0 0 0 0 0 0 0 0 0 0 0 0 0 0 0 0 0 0 0 0 0 0
0 0 0 0 0 0 0 0 0 0 0 0 0 0 0 0 0 0 0 0 0 0 0 0 0 0 0 0 0 0 0 0 0 0 0 0 0 0 0 0 0 0 0
3 0 0 0 0 0 0 0 0 0 0 0 0 0 0 0 0 0 0 0 0 0 0 0 0 0 0 0 0 0 0 0 0 0 0 0 0 0 0 0 0 0 0
3 0 0 0 0 0 0 0 0 0 0 0 0 0 0 0 0 0 0 0 0 0 0 0 0 0 0 0 0 0 0 0 0 0 0 0 0 0 0 0 0 0 0
0 0 0 0 0 0 0 0 0 0 0 0 0 0 0 0 0 0 0 0 0 0 0 0 0 0 0 0 0 0 0 0 0 0 0 0 0 0 0 0 0 0 0
0 0 0 0 0 0 0 0 0 0 0 0 0 0 0 0 0 0 0 0 0 0 0 0 0 0 0 0 0 0 0 0 0 0 0 0 0 0 0 0 0 0 0
0 0 0 0 0 0 0 0 0 0 0 0 0 0 0 0 0 0 0 0 0 0 0 0 0 0 0 0 0 0 0 0 0 0 0 0 0 0 0 0 0 0 0
0 0 0 0 0 0 0 0 0 0 0 0 0 0 0 0 0 0 0 0 0 0 0 0 0 0 0 0 0 0 0 0 0 0 0 0 0 0 0 0 0 0 0
0 0 0 0 0 0 0 0 0 0 0 0 0 0 0 0 0 0 0 0 0 0 0 0 0 0 0 0 0 0 0 0 0 0 0 0 0 0 0 0 0 0 0
0 0 0 0 0 0 0 0 0 0 0 0 0 0 0 0 0 0 0 0 0 0 0 0 0 0 0 0 0 0 0 0 0 0 0 0 0 0 0 0 0 0 0
0 0 0 0 0 0 0 0 0 0 0 0 0 0 0 0 0 0 0 0 0 0 0 0 0 0 0 0 0 0 0 0 0 0 0 0 0 0 0 0 0 0 0
0 0 0 0 0 0 0 0 0 0 0 0 0 0 0 0 0 0 0 0 0 0 0 0 0 0 0 0 0 0 0 0 0 0 0 0 0 0 0 0 0 0 0
0 0 0 0 0 0 0 0 0 0 0 0 0 0 0 0 0 0 0 0 0 0 0 0 0 0 0 0 0 0 0 0 0 0 0 0 0 0 0 0 0 0 0
0 0 0 0 0 0 0 0 0 0 0 0 0 0 0 0 0 0 0 0 0 0 0 0 0 0 0 0 0 0 0 0 0 0 0 0 0 0 0 0 0 0 0
0 0 0 0 0 0 0 0 0 0 0 0 0 0 0 0 0 0 0 0 0 0 0 0 0 0 0 0 0 0 0 0 0 0 0 0 0 0 0 0 0 0 0
0 0 0 0 0 0 0 0 0 0 0 0 0 0 0 0 0 0 0 0 0 0 0 0 0 0 0 0 0 0 0 0 0 0 0 0 0 0 0 0 0 0 0
0 0 0 0 0 0 0 0 0 0 0 0 0 0 0 0 0 0 0 0 0 0 0 0 0 0 0 0 0 0 0 0 0 0 0 0 0 0 0 0 0 0 0
0 0 0 0 0 0 0 0 0 0 0 0 0 0 0 0 0 0 0 0 0 0 0 0 0 0 0 0 0 0 0 0 0 0 0 0 0 0 0 0 0 0 0
0 0 0 0 0 0 0 0 0 0 0 0 0 0 0 0 0 0 0 0 0 0 0 0 0 0 0 0 0 0 0 0 0 0 0 0 0 0 0 0 0 0 0
0 0 0 0 0 0 0 0 0 0 0 0 0 0 0 0 0 0 0 0 0 0 0 0 0 0 0 0 0 0 0 0 0 0 0 0 0 0 0 0 0 0 0
0 0 0 0 0 0 0 0 0 0 0 0 0 0 0 0 0 0 0 0 0 0 0 0 0 0 0 0 0 0 0 0 0 0 0 0 0 0 0 0 0 0 0
0 0 0 0 0 0 0 0 0 0 0 0 0 0 0 0 0 0 0 0 0 0 0 0 0 0 0 0 0 0 0 0 0 0 0 0 0 0 0 0 0 0 0
0 0 0 0 0 0 0 0 0 0 0 0 0 0 0 0 0 0 0 0 0 0 0 0 0 0 0 0 0 0 0 0 0 0 0 0 0 0 0 0 0 0 0
0 0 0 0 0 0 0 0 0 0 0 0 0 0 0 0 0 0 0 0 0 0 0 0 0 0 0 0 0 0 0 0 0 0 0 0 0 0 0 0 0 0 0
Height
5831 5834 5836 5837 5839 5841 5842 5844 5846 5847 5848 5849 5850 5851 5852 5852 5853 5854 5854 5854 5855 5855 5855 5855 5855 5855 5854 5854 5854 5853 5853 5853 5852 5851 5850 5849 5848 5848 5847 5846 5846 5845 5845
5829 5831 5833 5835 5836 5838 5839 5841 5842 5843 5844 5844 5845 5846 5847 5847 5847 5848 5848 5848 5848 5848 5848 5848 5847 5847 5847 5846 5846 5845 5845 5844 5844 5843 5842 5841 5840 5839 5839 5838 5837 5836 5836
5827 5829 5830 5832 5833 5834 5836 5837 5837 5838 5839 5840 5840 5841 5841 5841 5841 5841 5841 5840 5840 5839 5839 5839 5838 5838 5837 5837 5836 5836 5835 5834 5834 5833 5832 5831 5830 5829 5829 5828 5827 5827 5826
5824 5825 5826 5828 5829 5830 5831 5832 5833 5833 5834 5835 5835 5835 5835 5835 5834 5834 5833 5832 5831 5831 5830 5829 5828 5827 5827 5826 5825 5825 5824 5823 5822 5822 5822 5820 5820 5819 5818 5817 5817 5816 5816
5821 5821 5822 5823 5824 5826 5826 5827 5828 5828 5828 5828 5828 5828 5828 5827 5827 5826 5825 5824 5823 5822 5820 5819 5818 5817 5816 5815 5814 5813 5812 5811 5810 5810 5809 5808 5808 5806 5805 5805 5805 5805 5804
5817 5818 5819 5819 5819 5820 5821 5822 5822 5822 5822 5822 5822 5821 5820 5819 5818 5817 5816 5815 5813 5812 5810 5808 5807 5805 5804 5803 5802 5801 5800 5798 5797 5796 5796 5795 5795 5793 5792 5791 5790 5790 5791
5814 5815 5815 5816 5816 5816 5816 5816 5817 5817 5816 5816 5814 5813 5812 5810 5809 5808 5806 5805 5803 5802 5800 5798 5796 5794 5793 5791 5790 5788 5787 5785 5784 5783 5782 5781 5780 5779 5778 5777 5775 5775 5775
5811 5811 5811 5811 5811 5811 5811 5811 5811 5810 5809 5808 5806 5804 5803 5801 5800 5798 5796 5794 5792 5790 5788 5786 5784 5782 5781 5779 5777 5776 5774 5772 5770 5769 5768 5766 5764 5763 5762 5761 5759 5759 5760
5807 5807 5807 5807 5806 5806 5806 5805 5803 5802 5801 5799 5797 5795 5794 5792 5789 5787 5785 5783 5781 5779 5776 5774 5772 5770 5768 5766 5764 5762 5760 5757 5755 5753 5752 5750 5748 5746 5744 5742 5741 5740 5741
5803 5802 5802 5801 5800 5799 5798 5797 5795 5794 5792 5790 5788 5786 5783 5781 5779 5777 5774 5772 5770 5767 5765 5762 5759 5756 5754 5751 5749 5747 5745 5742 5740 5737 5735 5733 5730 5728 5725 5723 5722 5720 5720
5796 5796 5795 5794 5793 5792 5790 5788 5786 5784 5782 5780 5778 5775 5773 5771 5768 5765 5763 5760 5757 5755 5752 5749 5746 5743 5740 5737 5734 5732 5729 5726 5723 5720 5718 5715 5712 5709 5706 5703 5700 5698 5698
5789 5788 5787 5786 5785 5783 5781 5779 5777 5775 5772 5770 5767 5765 5762 5759 5757 5753 5750 5747 5744 5741 5738 5735 5732 5728 5725 5721 5718 5714 5711 5708 5704 5701 5698 5695 5691 5688 5685 5681 5678 5675 5673
5782 5780 5779 5777 5776 5774 5771 5769 5767 5764 5761 5759 5756 5753 5750 5747 5744 5741 5737 5734 5731 5727 5724 5720 5716 5712 5708 5704 5700 5696 5692 5688 5684 5681 5677 5673 5670 5666 5662 5659 5655 5652 5650
5773 5772 5770 5768 5766 5764 5761 5759 5756 5753 5750 5748 5745 5742 5738 5735 5731 5727 5723 5720 5716 5712 5708 5704 5699 5695 5691 5686 5682 5677 5672 5668 5664 5660 5656 5652 5648 5644 5640 5636 5633 5629 5627
5764 5763 5761 5758 5756 5754 5751 5748 5745 5742 5739 5736 5732 5729 5725 5721 5717 5713 5709 5705 5700 5696 5691 5686 5682 5677 5672 5667 5663 5658 5653 5649 5644 5640 5636 5632 5628 5624 5620 5616 5612 5607 5604
5756 5754 5751 5749 5746 5743 5740 5737 5734 5731 5727 5723 5719 5715 5711 5707 5702 5698 5693 5688 5683 5678 5673 5669 5664 5659 5654 5649 5645 5640 5635 5630 5626 5622 5617 5613 5609 5606 5602 5598 5593 5589 5586
5747 5744 5742 5739 5736 5733 5729 5726 5722 5719 5714 5710 5705 5701 5696 5691 5686 5681 5676 5671 5666 5661 5656 5651 5646 5641 5636 5632 5627 5623 5618 5614 5609 5605 5601 5597 5593 5590 5586 5582 5578 5575 5571
5737 5735 5732 5728 5725 5722 5718 5714 5709 5705 5700 5695 5690 5685 5680 5675 5670 5664 5659 5654 5648 5643 5638 5633 5628 5624 5619 5615 5611 5607 5603 5599 5595 5591 5587 5583 5579 5576 5573 5569 5565 5561 5558
5728 5725 5721 5718 5714 5710 5705 5701 5696 5691 5686 5680 5675 5669 5664 5658 5653 5648 5643 5638 5632 5627 5621 5617 5612 5608 5604 5600 5597 5593 5590 5586 5583 5579 5575 5572 5568 5564 5561 5558 5554 5550 5546
5718 5714 5710 5706 5702 5697 5692 5687 5682 5676 5670 5665 5659 5653 5648 5642 5637 5632 5627 5622 5617 5612 5607 5603 5599 5595 5591 5588 5585 5582 5579 5575 5572 5568 5565 5561 5558 5554 5551 5547 5544 5540 5536
5707 5703 5699 5694 5689 5684 5678 5673 5667 5661 5655 5649 5644 5638 5633 5628 5623 5618 5613 5608 5604 5600 5595 5591 5588 5584 5581 5578 5575 5572 5569 5566 5563 5559 5556 5552 5549 5545 5542 5538 5534 5531 5527
5695 5691 5686 5681 5675 5670 5664 5658 5652 5646 5641 5635 5630 5625 5620 5615 5610 5605 5601 5596 5592 5589 5585 5582 5578 5575 5573 5570 5567 5564 5561 5558 5555 5552 5548 5544 5541 5537 5534 5530 5526 5523 5519
5683 5678 5672 5667 5662 5656 5650 5645 5639 5633 5628 5622 5617 5613 5608 5603 5599 5594 5590 5586 5583 5580 5576 5573 5571 5568 5565 5562 5560 5557 5554 5551 5548 5545 5541 5538 5534 5530 5527 5523 5519 5516 5512
5671 5665 5660 5655 5649 5644 5638 5633 5627 5622 5617 5612 5607 5602 5598 5594 5589 5585 5581 5578 5575 5571 5568 5566 5563 5561 5558 5555 5552 5550 5547 5544 5541 5538 5535 5532 5528 5524 5521 5517 5513 5509 5506
5659 5654 5649 5643 5638 5633 5627 5622 5616 5611 5607 5602 5597 5593 5589 5585 5581 5577 5573 5570 5567 5564 5561 5558 5556 5553 5551 5549 5546 5543 5540 5537 5534 5532 5528 5525 5522 5518 5515 5511 5508 5504 5500
5649 5643 5638 5633 5627 5622 5617 5612 5607 5602 5597 5593 5589 5585 5581 5577 5573 5570 5566 5563 5560 5557 5554 5552 5549 5547 5544 5542 5539 5537 5534 5531 5528 5525 5522 5519 5516 5512 5509 5506 5502 5499 5495
Wind_Speed
13 15 16 17 17 16 17 17 18 18 18 18 19 19 20 21 22 24 25 25 25 26 27 27 28 28 28 29 30 30 30 30 30 30 30 30 30 30 30 30 30 30 30
11 13 15 17 18 18 19 19 19 19 19 20 20 21 22 23 24 26 27 28 29 29 30 31 32 32 33 33 33 34 34 33 33 33 33 33 33 34 34 34 34 33 33
11 13 15 17 17 18 19 19 18 19 20 22 22 24 25 26 26 27 28 29 31 32 33 34 36 36 36 36 37 37 37 37 36 36 36 37 37 37 37 37 37 37 37
13 14 16 17 18 19 19 20 20 20 21 23 24 26 26 27 28 29 30 32 33 34 35 37 38 39 39 39 39 39 40 41 41 41 40 40 41 41 41 41 41 41 41
13 14 16 18 19 19 20 20 20 21 23 24 25 26 28 29 31 32 33 35 36 36 38 39 40 41 41 41 41 42 43 43 44 44 43 43 44 45 45 45 45 45 45
14 14 15 16 17 19 21 21 22 23 24 25 26 29 30 31 33 33 34 36 38 39 39 40 42 43 43 43 44 45 46 46 46 46 46 47 47 48 48 49 48 48 47
15 15 16 17 16 17 19 21 23 25 26 27 29 30 31 33 34 35 36 37 39 40 42 43 45 46 46 46 47 47 48 49 49 49 48 49 49 50 51 51 52 52 51
15 16 16 17 17 18 19 21 23 25 27 29 30 31 32 33 34 36 37 38 40 41 42 44 46 46 46 47 48 49 50 50 52 52 52 52 52 53 55 56 56 56 57
17 18 19 20 20 21 22 24 25 27 29 30 32 33 34 35 35 36 37 38 40 41 42 44 46 47 47 48 49 50 50 51 52 53 54 55 56 57 59 60 61 61 61
20 21 22 23 24 24 26 27 29 30 32 33 33 34 35 35 36 37 38 39 41 42 43 44 45 46 47 49 50 51 52 53 54 55 56 57 59 61 63 64 65 66 67
23 23 24 25 26 28 29 30 31 32 33 34 35 35 35 36 37 38 39 41 42 44 45 46 47 48 50 51 52 54 55 56 57 59 60 62 64 65 67 69 70 71 72
25 25 27 27 28 29 30 31 32 33 34 35 36 36 37 39 40 41 42 43 45 46 48 49 51 52 53 55 56 58 59 60 62 64 65 66 68 69 71 72 74 75 76
27 27 28 29 30 31 32 33 34 34 35 36 37 38 39 41 42 43 45 46 47 49 50 52 53 55 56 57 58 60 61 62 64 65 66 67 68 69 70 72 74 75 76
28 29 30 31 32 33 34 35 35 36 37 39 40 41 42 43 45 46 47 48 50 51 52 53 55 56 56 58 59 60 61 61 62 62 62 63 64 65 67 68 69 70 70
29 30 32 33 34 35 36 37 38 39 40 41 42 44 45 46 48 49 51 52 53 54 55 56 57 57 58 59 59 60 60 60 59 59 59 60 60 60 60 61 61 62 62
31 32 33 34 35 36 38 39 40 42 43 44 45 47 49 50 52 53 54 55 56 57 58 58 58 59 59 58 58 57 57 56 55 55 55 55 54 54 54 53 54 53 51
32 33 34 36 37 38 40 41 43 45 47 48 50 52 53 54 55 57 57 58 58 58 58 58 58 57 56 55 53 52 51 50 50 49 48 48 47 47 46 46 46 46 45
33 35 36 38 40 41 43 45 47 49 51 53 54 56 56 57 58 58 58 57 57 57 56 55 54 53 51 50 48 46 45 44 43 42 42 41 41 41 40 40 40 40 39
35 37 39 41 43 45 47 49 51 53 54 56 57 57 57 57 57 56 55 54 54 53 52 50 48 47 45 43 41 40 39 38 38 37 37 36 36 35 35 35 35 35 35
38 40 42 44 47 49 51 53 54 55 56 56 56 56 55 55 54 53 52 51 49 47 45 43 42 40 38 36 35 35 34 33 33 33 32 32 32 32 32 32 32 31 31
41 44 46 48 50 52 53 54 55 55 55 54 54 53 52 51 50 49 48 45 43 40 39 37 35 34 32 31 30 30 29 29 29 29 29 29 29 29 29 29 28 28 28
45 47 49 50 51 52 52 52 52 52 51 51 50 49 47 46 44 42 41 38 36 35 34 32 31 29 28 27 26 26 25 25 26 26 26 26 26 26 26 26 27 27 27
47 48 49 49 49 49 49 49 48 47 46 44 43 42 41 39 38 36 35 33 32 31 30 29 27 26 25 25 25 24 24 24 24 24 24 24 25 25 25 25 25 25 26
46 46 46 46 46 45 45 45 44 42 41 40 39 37 36 35 34 33 32 30 29 28 27 26 25 25 24 23 23 23 23 23 23 23 23 23 23 24 24 24 24 24 24
43 43 43 43 43 42 42 40 39 38 37 36 35 34 33 33 32 30 29 28 28 27 26 25 24 23 22 22 22 22 23 23 23 23 23 23 23 23 22 22 22 23 22
41 41 41 40 40 39 38 37 36 35 34 33 32 31 31 30 29 29 28 27 26 25 25 24 23 22 22 22 22 23 23 23 23 23 22 22 22 22 21 21 21 21 21
Wind_Direction
220 223 229 233 234 236 238 242 247 250 252 255 257 258 260 262 264 265 266 267 268 270 271 272 272 273 274 274 275 276 276 276 275 274 273 273 272 272 271 271 270 269 268
229 231 233 235 237 240 244 248 251 253 255 257 259 262 264 266 268 268 268 270 270 271 273 274 274 275 275 275 276 276 276 276 275 274 273 272 271 271 271 270 270 269 268
233 237 240 242 244 247 249 252 254 257 259 260 262 266 266 268 270 270 269 270 272 272 273 274 275 275 275 275 276 276 275 275 274 274 272 271 269 269 269 269 269 268 268
239 242 246 247 249 251 254 256 261 263 264 265 266 268 270 270 271 272 270 271 273 273 274 275 275 274 275 275 276 275 275 274 274 273 272 271 270 270 269 268 268 268 267
248 250 252 254 253 256 259 259 263 266 268 268 269 270 271 272 273 273 273 273 273 275 276 276 276 274 275 276 276 276 276 276 275 275 273 272 271 270 269 268 268 268 268
258 257 261 259 258 259 260 261 265 269 271 272 273 273 275 275 274 273 273 273 274 275 276 276 276 275 273 275 276 276 276 276 276 276 276 274 271 271 270 270 270 269 268
263 264 266 269 269 271 268 267 270 271 272 274 275 275 275 275 275 274 274 274 275 275 276 277 276 275 274 274 275 275 276 276 276 276 276 274 273 272 271 271 270 270 270
268 270 273 276 277 275 274 270 271 272 273 274 276 277 278 278 277 277 276 275 276 276 277 278 278 276 274 275 275 275 276 277 277 276 276 275 274 273 273 272 271 271 271
272 274 275 277 278 278 277 276 276 276 277 278 278 278 279 278 278 277 277 277 277 278 279 279 279 278 277 276 276 276 277 278 278 278 278 276 275 275 275 274 273 273 272
274 276 278 279 279 279 279 280 280 279 280 281 281 281 280 280 279 279 279 279 279 280 280 280 280 280 280 278 278 277 278 278 278 277 277 276 276 275 275 274 274 274 273
275 277 279 280 281 282 283 283 283 283 283 283 283 283 283 283 283 283 282 282 281 281 281 281 282 281 281 280 279 279 279 279 278 277 277 277 277 276 274 274 274 274 274
277 279 281 283 284 285 285 285 285 285 285 285 285 285 285 285 285 285 284 284 284 284 283 283 283 283 283 282 282 282 281 281 279 278 277 277 277 276 276 275 275 275 275
280 282 283 284 285 286 287 287 287 288 288 288 288 288 288 287 287 286 286 286 286 285 285 285 285 285 285 284 284 284 283 283 282 281 280 279 278 277 277 276 276 276 276
283 285 286 287 288 290 290 291 291 291 291 291 290 290 289 289 289 288 288 288 288 287 287 287 287 286 286 286 286 286 286 285 284 283 282 281 281 280 280 279 279 278 277
286 287 288 290 291 291 292 292 293 293 292 292 292 291 291 290 290 290 290 290 290 290 289 289 288 288 289 289 288 288 287 287 286 285 284 283 283 282 282 282 282 282 280
287 289 290 291 292 293 293 293 293 293 293 292 292 291 291 291 291 291 292 291 291 291 290 290 290 290 290 290 289 289 289 288 288 288 287 286 285 285 284 284 285 285 284
289 291 292 292 293 293 293 293 293 293 292 292 292 291 292 292 292 292 293 293 292 292 292 292 292 292 292 291 290 290 290 289 289 290 289 288 288 288 287 287 287 287 287
291 292 292 293 293 293 293 293 293 293 293 293 293 293 293 294 294 294 295 295 295 295 295 294 294 294 293 292 291 291 291 291 291 291 291 291 291 291 290 290 290 289 288
292 292 293 293 294 294 294 293 293 293 294 294 294 295 295 296 296 296 296 296 296 296 296 296 296 295 294 293 293 293 293 293 293 293 293 294 294 294 293 294 293 292 292
293 293 294 294 295 294 294 294 294 295 295 295 296 296 297 297 297 297 297 298 298 298 298 298 297 297 296 296 296 296 296 296 296 296 296 296 296 296 296 297 296 295 295
293 294 294 295 295 295 295 296 296 297 297 297 297 298 298 298 298 298 299 299 299 299 299 299 299 299 298 298 299 299 299 299 300 300 300 300 301 300 300 300 300 300 301
294 295 296 296 297 297 298 298 299 299 300 300 299 299 300 300 300 300 300 300 299 299 299 298 298 299 298 299 300 301 302 303 304 305 305 304 304 304 304 304 304 304 305
296 297 298 299 299 300 301 301 302 302 302 302 302 302 302 302 303 302 302 302 301 300 300 299 299 298 298 299 301 302 303 304 305 306 307 307 306 306 307 307 307 307 308
299 300 301 301 302 303 303 303 303 304 304 304 303 303 304 304 305 305 304 303 302 302 301 300 299 299 299 300 302 303 304 306 307 307 308 309 309 310 309 310 310 311 311
302 302 303 303 304 305 305 305 305 305 305 305 305 305 305 306 306 305 304 303 302 302 301 301 300 299 300 302 303 304 306 309 310 310 311 311 311 312 312 311 312 312 313
304 304 304 305 306 307 307 307 308 308 307 307 307 307 307 307 307 306 305 303 302 302 301 301 300 300 301 302 303 304 306 308 310 312 312 312 312 313 313 313 314 315 316